When you browse on this site, cookies collect data to enhance your experience and personalize the content and advertising you see.
Visit our Privacy Policy to learn more. By continuing to use the site, you agree to this use of cookies and data.
  • In Austria
  • List of Countries
  • For 7 days
  • Water Temperature
  • Weather Map
  • News
  • Weather Widgets
  • user-avatar
    Login

    Hourly Weather Chapulhuacan

    Today, 22 November, Friday

    Time Temperature Precipitation Wind Pressure Humidity
    00:00 +18°C° 0 mm 0 mps 676 mmHg 94%
    01:00 +18°C° 0 mm 0 mps 676 mmHg 94%
    02:00 +17°C° 0 mm 0 mps 675 mmHg 93%
    03:00 +17°C° 0 mm 0 mps 675 mmHg 93%
    04:00 +17°C° 0 mm 0 mps 675 mmHg 93%
    05:00 +16°C° 0 mm 0 mps 675 mmHg 93%
    06:00 +18°C° 0 mm 0 mps 676 mmHg 89%
    07:00 +19°C° 0 mm 0 mps 677 mmHg 84%
    08:00 +20°C° 0 mm 0 mps 677 mmHg 79%
    09:00 +24°C° 0 mm 1 mps 677 mmHg 74%
    10:00 +25°C° 0 mm 1 mps 677 mmHg 69%
    11:00 +27°C° 0 mm 2 mps 677 mmHg 64%
    12:00 +27°C° 0 mm 2 mps 676 mmHg 67%
    13:00 +26°C° 0 mm 2 mps 675 mmHg 70%
    14:00 +26°C° 0 mm 2 mps 674 mmHg 72%
    15:00 +25°C° 0.1 mm 2 mps 674 mmHg 79%
    16:00 +23°C° 0.1 mm 1 mps 675 mmHg 86%
    17:00 +22°C° 0.1 mm 1 mps 675 mmHg 93%
    18:00 +21°C° 0.1 mm 1 mps 675 mmHg 94%
    19:00 +21°C° 0.1 mm 1 mps 676 mmHg 95%
    20:00 +19°C° 0.1 mm 0 mps 677 mmHg 95%
    21:00 +19°C° 0 mm 0 mps 677 mmHg 95%
    22:00 +19°C° 0 mm 0 mps 677 mmHg 95%
    23:00 +18°C° 0 mm 0 mps 677 mmHg 95%

    Tomorrow, 23 November, Saturday

    Time Temperature Precipitation Wind Pressure Humidity
    00:00 +18°C° 0.1 mm 0 mps 676 mmHg 95%
    01:00 +18°C° 0.1 mm 0 mps 676 mmHg 95%
    02:00 +18°C° 0.1 mm 0 mps 676 mmHg 95%
    03:00 +18°C° 0.1 mm 0 mps 676 mmHg 95%
    04:00 +18°C° 0.1 mm 0 mps 676 mmHg 95%
    05:00 +18°C° 0.1 mm 0 mps 676 mmHg 95%
    06:00 +18°C° 0 mm 0 mps 677 mmHg 94%
    07:00 +18°C° 0 mm 0 mps 677 mmHg 93%
    08:00 +18°C° 0 mm 0 mps 678 mmHg 92%
    09:00 +20°C° 0.1 mm 0 mps 678 mmHg 86%
    10:00 +23°C° 0.1 mm 1 mps 678 mmHg 80%
    11:00 +24°C° 0.1 mm 1 mps 678 mmHg 74%
    12:00 +24°C° 0.1 mm 1 mps 677 mmHg 77%
    13:00 +23°C° 0.1 mm 2 mps 677 mmHg 80%
    14:00 +23°C° 0.1 mm 2 mps 676 mmHg 84%
    15:00 +22°C° 0.2 mm 1 mps 676 mmHg 88%
    16:00 +21°C° 0.2 mm 1 mps 676 mmHg 92%
    17:00 +20°C° 0.2 mm 1 mps 676 mmHg 97%
    18:00 +20°C° 0.2 mm 1 mps 677 mmHg 97%
    19:00 +20°C° 0.2 mm 1 mps 678 mmHg 97%
    20:00 +20°C° 0.2 mm 1 mps 678 mmHg 98%
    21:00 +19°C° 0.4 mm 1 mps 678 mmHg 98%
    22:00 +19°C° 0.4 mm 1 mps 678 mmHg 98%
    23:00 +19°C° 0.4 mm 1 mps 678 mmHg 98%

    Day after tomorrow, 24 November, Sunday

    Time Temperature Precipitation Wind Pressure Humidity
    00:00 +19°C° 0.3 mm 1 mps 678 mmHg 98%
    01:00 +17°C° 0.3 mm 0 mps 678 mmHg 98%
    02:00 +17°C° 0.3 mm 0 mps 677 mmHg 98%
    03:00 +17°C° 0.2 mm 0 mps 677 mmHg 98%
    04:00 +17°C° 0.2 mm 0 mps 677 mmHg 98%
    05:00 +17°C° 0.2 mm 0 mps 677 mmHg 98%
    06:00 +17°C° 0.1 mm 0 mps 678 mmHg 98%
    07:00 +17°C° 0.1 mm 0 mps 678 mmHg 97%
    08:00 +17°C° 0.1 mm 0 mps 679 mmHg 96%
    09:00 +20°C° 0 mm 1 mps 678 mmHg 93%
    10:00 +20°C° 0 mm 1 mps 678 mmHg 91%
    11:00 +21°C° 0 mm 1 mps 677 mmHg 88%
    12:00 +21°C° 0 mm 1 mps 677 mmHg 86%
    13:00 +22°C° 0 mm 1 mps 676 mmHg 85%
    14:00 +22°C° 0 mm 1 mps 675 mmHg 84%
    15:00 +21°C° 0.1 mm 1 mps 675 mmHg 88%
    16:00 +20°C° 0.1 mm 1 mps 675 mmHg 92%
    17:00 +17°C° 0.1 mm 0 mps 675 mmHg 96%
    18:00 +17°C° 0 mm 0 mps 675 mmHg 96%
    19:00 +17°C° 0 mm 0 mps 675 mmHg 96%
    20:00 +17°C° 0 mm 0 mps 676 mmHg 96%
    21:00 +16°C° 0 mm 0 mps 675 mmHg 96%
    22:00 +16°C° 0 mm 0 mps 675 mmHg 95%
    23:00 +16°C° 0 mm 0 mps 675 mmHg 95%

    25 November, Monday

    Time Temperature Precipitation Wind Pressure Humidity
    00:00 +16°C° 0 mm 0 mps 674 mmHg 95%
    01:00 +16°C° 0 mm 0 mps 674 mmHg 95%
    02:00 +15°C° 0 mm 0 mps 673 mmHg 95%
    03:00 +15°C° 0 mm 0 mps 673 mmHg 94%
    04:00 +15°C° 0 mm 0 mps 673 mmHg 94%
    05:00 +15°C° 0 mm 0 mps 674 mmHg 94%
    06:00 +17°C° 0 mm 0 mps 674 mmHg 88%
    07:00 +19°C° 0 mm 0 mps 675 mmHg 82%
    08:00 +20°C° 0 mm 0 mps 675 mmHg 76%
    09:00 +24°C° 0 mm 1 mps 675 mmHg 72%
    10:00 +25°C° 0 mm 1 mps 675 mmHg 68%
    11:00 +26°C° 0 mm 2 mps 675 mmHg 64%
    12:00 +26°C° 0 mm 2 mps 674 mmHg 68%
    13:00 +26°C° 0 mm 2 mps 673 mmHg 71%
    14:00 +25°C° 0 mm 2 mps 672 mmHg 75%
    15:00 +24°C° 0.2 mm 1 mps 672 mmHg 82%
    16:00 +23°C° 0.2 mm 1 mps 672 mmHg 88%
    17:00 +21°C° 0.2 mm 1 mps 672 mmHg 94%
    18:00 +19°C° 0 mm 0 mps 673 mmHg 94%
    19:00 +19°C° 0 mm 0 mps 673 mmHg 94%
    20:00 +19°C° 0 mm 0 mps 674 mmHg 94%
    21:00 +18°C° 0 mm 0 mps 674 mmHg 94%
    22:00 +18°C° 0 mm 0 mps 674 mmHg 95%
    23:00 +19°C° 0 mm 1 mps 673 mmHg 95%

    26 November, Tuesday

    Time Temperature Precipitation Wind Pressure Humidity
    00:00 +19°C° 0 mm 1 mps 673 mmHg 94%
    01:00 +17°C° 0 mm 0 mps 673 mmHg 92%
    02:00 +17°C° 0 mm 0 mps 672 mmHg 91%
    03:00 +19°C° 0 mm 1 mps 672 mmHg 90%
    04:00 +18°C° 0 mm 1 mps 672 mmHg 88%
    05:00 +18°C° 0 mm 1 mps 672 mmHg 87%
    06:00 +18°C° 0 mm 0 mps 673 mmHg 82%
    07:00 +20°C° 0 mm 0 mps 674 mmHg 76%
    08:00 +22°C° 0 mm 0 mps 674 mmHg 71%
    09:00 +23°C° 0 mm 0 mps 674 mmHg 67%
    10:00 +26°C° 0 mm 1 mps 674 mmHg 63%
    11:00 +28°C° 0 mm 1 mps 674 mmHg 59%
    12:00 +28°C° 0 mm 2 mps 674 mmHg 62%
    13:00 +28°C° 0 mm 2 mps 673 mmHg 65%
    14:00 +27°C° 0 mm 2 mps 672 mmHg 68%
    15:00 +26°C° 0.1 mm 1 mps 672 mmHg 77%
    16:00 +24°C° 0.1 mm 1 mps 672 mmHg 86%
    17:00 +22°C° 0.1 mm 1 mps 672 mmHg 95%
    18:00 +20°C° 0 mm 0 mps 673 mmHg 96%
    19:00 +19°C° 0 mm 0 mps 673 mmHg 96%
    20:00 +19°C° 0 mm 0 mps 674 mmHg 97%
    21:00 +19°C° 0 mm 0 mps 674 mmHg 97%
    22:00 +18°C° 0 mm 0 mps 674 mmHg 97%
    23:00 +20°C° 0 mm 1 mps 675 mmHg 97%

    27 November, Wednesday

    Time Temperature Precipitation Wind Pressure Humidity
    00:00 +18°C° 0.1 mm 0 mps 675 mmHg 97%
    01:00 +18°C° 0.1 mm 0 mps 675 mmHg 97%
    02:00 +18°C° 0.1 mm 0 mps 675 mmHg 97%
    03:00 +18°C° 0.1 mm 0 mps 675 mmHg 97%
    04:00 +18°C° 0.1 mm 0 mps 675 mmHg 97%
    05:00 +18°C° 0.1 mm 0 mps 675 mmHg 97%
    06:00 +18°C° 0 mm 0 mps 676 mmHg 96%
    07:00 +19°C° 0 mm 0 mps 677 mmHg 94%
    08:00 +19°C° 0 mm 0 mps 677 mmHg 93%
    09:00 +22°C° 0.1 mm 1 mps 677 mmHg 87%
    10:00 +24°C° 0.1 mm 1 mps 677 mmHg 80%
    11:00 +25°C° 0.1 mm 1 mps 677 mmHg 73%
    12:00 +25°C° 0.1 mm 1 mps 677 mmHg 74%
    13:00 +25°C° 0.1 mm 1 mps 676 mmHg 75%
    14:00 +25°C° 0.1 mm 2 mps 676 mmHg 76%
    15:00 +23°C° 0.1 mm 1 mps 676 mmHg 82%
    16:00 +22°C° 0.1 mm 1 mps 676 mmHg 88%
    17:00 +19°C° 0.1 mm 0 mps 676 mmHg 94%
    18:00 +19°C° 0.1 mm 0 mps 677 mmHg 95%
    19:00 +19°C° 0.1 mm 0 mps 677 mmHg 95%
    20:00 +18°C° 0.1 mm 0 mps 678 mmHg 95%
    21:00 +18°C° 0.1 mm 0 mps 678 mmHg 96%
    22:00 +18°C° 0.1 mm 0 mps 678 mmHg 96%
    23:00 +18°C° 0.1 mm 0 mps 679 mmHg 96%
    Show more